User: anonymous   Login
Location: NC_16_and_73
(35.4490°N, 81.0150°W)
Time: 18:36:29
(UTC-04:00)
Language:

Cosmos-2242 - Orbit

View from above orbital plane
View from above orbital plane
View from above satellite
View from above satellite

Ground track
Ground track

The orbit data is extracted from the following two-line orbital elements,

1 22626U 93024A   17116.47792574 +.00000415 +00000-0 +42892-4 0  9996
2 22626 082.5205 090.5671 0017599 294.8945 065.0442 14.87644995298166
Epoch (UTC): 26 April 2017 11:28:12
Eccentricity: 0.0017599
inclination: 82.5205°
perigee height: 593 km
apogee height: 617 km
right ascension of ascending node: 90.5671°
argument of perigee: 294.8945°
revolutions per day: 14.87644995
mean anomaly at epoch: 65.0442°
orbit number at epoch: 29816

The dashed part of the orbit path shows where the satellite is in the earth's shadow,  

DLR